GKION KHXD-MDPP

Flight info

Callsign GKION
Flight time 2h 41m
Altitude 38000
Route GIPPL DCT WOPNR Q97 PRMUS/N0375F390 Q89 MANLE Y185 VENDS Y298 RUMFO Y441 JUELE JUELE2S
Aircraft C525/L-SDFGRWY/SB1

Departure

Time 2026-04-20 17:52
Airport Hilton Head Airport (KHXD)

Arrival

Time 2026-04-20 20:33
Airport Gregorio Luperon International Airport (MDPP)
Time Latitude Longitude Altitude Speed Heading
2026-04-20 17:43 32.22142 -80.69755 13 ft 0 kts 205°
2026-04-20 17:49 32.22142 -80.69756 13 ft 0 kts 214°
2026-04-20 17:49 32.22144 -80.69759 13 ft 3 kts 303°
2026-04-20 17:50 32.22141 -80.69805 13 ft 9 kts 214°
2026-04-20 17:50 32.22052 -80.69860 13 ft 19 kts 205°
2026-04-20 17:50 32.21916 -80.69939 13 ft 21 kts 204°
2026-04-20 17:50 32.21817 -80.70007 13 ft 6 kts 246°
2026-04-20 17:51 32.21823 -80.70049 13 ft 4 kts 291°
2026-04-20 17:51 32.21845 -80.70083 13 ft 5 kts 353°
2026-04-20 17:51 32.21873 -80.70071 13 ft 3 kts 26°
2026-04-20 17:51 32.21905 -80.70052 13 ft 13 kts 25°
2026-04-20 17:52 32.22144 -80.69913 13 ft 69 kts 29°
2026-04-20 17:52 32.22746 -80.69572 48 ft 116 kts 29°
2026-04-20 17:52 32.23529 -80.69122 365 ft 132 kts 28°
2026-04-20 17:52 32.24447 -80.68618 744 ft 153 kts 26°
2026-04-20 17:53 32.25488 -80.68078 1184 ft 172 kts 25°
2026-04-20 17:53 32.26666 -80.67457 1394 ft 203 kts 25°
2026-04-20 17:53 32.28025 -80.66727 2056 ft 208 kts 25°
2026-04-20 17:53 32.29341 -80.66012 2741 ft 210 kts 25°
2026-04-20 17:54 32.30655 -80.65284 3490 ft 209 kts 25°
2026-04-20 17:54 32.31915 -80.64403 4118 ft 214 kts 43°
2026-04-20 17:54 32.32504 -80.62808 4779 ft 222 kts 81°
2026-04-20 17:54 32.32134 -80.61010 5385 ft 235 kts 118°
2026-04-20 17:55 32.30874 -80.59734 5947 ft 245 kts 155°
2026-04-20 17:55 32.29299 -80.59616 7020 ft 220 kts 198°
2026-04-20 17:55 32.28077 -80.60523 7690 ft 206 kts 237°
2026-04-20 17:55 32.27306 -80.61889 8391 ft 199 kts 242°
2026-04-20 17:56 32.26518 -80.63256 8975 ft 200 kts 242°
2026-04-20 17:56 32.25728 -80.64600 9590 ft 199 kts 242°
2026-04-20 17:56 32.24922 -80.65951 10197 ft 198 kts 242°
2026-04-20 17:56 32.24122 -80.67271 10739 ft 199 kts 242°
2026-04-20 17:57 32.23294 -80.68623 11295 ft 200 kts 243°
2026-04-20 17:57 32.22468 -80.69945 11835 ft 200 kts 242°
2026-04-20 17:57 32.21563 -80.71223 12382 ft 209 kts 227°
2026-04-20 17:57 32.20143 -80.71917 12891 ft 229 kts 198°
2026-04-20 17:58 32.18541 -80.72064 13356 ft 233 kts 195°
2026-04-20 17:58 32.16962 -80.72467 13847 ft 224 kts 210°
2026-04-20 17:58 32.15572 -80.73219 14330 ft 217 kts 220°
2026-04-20 17:58 32.14250 -80.74121 14810 ft 217 kts 221°
2026-04-20 17:59 32.12920 -80.74997 15238 ft 223 kts 219°
2026-04-20 17:59 32.11555 -80.75824 15932 ft 220 kts 218°
2026-04-20 17:59 32.10160 -80.76630 16415 ft 226 kts 217°
2026-04-20 17:59 32.08743 -80.77425 17087 ft 222 kts 217°
2026-04-20 18:00 32.07332 -80.78213 17534 ft 228 kts 216°
2026-04-20 18:00 32.05915 -80.79000 18113 ft 228 kts 217°
2026-04-20 18:00 32.04485 -80.79795 18698 ft 226 kts 218°
2026-04-20 18:00 32.03062 -80.80588 19215 ft 226 kts 217°
2026-04-20 18:01 32.01632 -80.81383 19740 ft 226 kts 218°
2026-04-20 18:01 32.00220 -80.82172 20266 ft 224 kts 218°
2026-04-20 18:01 31.98805 -80.82958 20763 ft 224 kts 218°
2026-04-20 18:01 31.97376 -80.83755 21233 ft 224 kts 219°
2026-04-20 18:02 31.95954 -80.84547 21728 ft 223 kts 219°
2026-04-20 18:02 31.94562 -80.85322 22181 ft 222 kts 219°
2026-04-20 18:02 31.93197 -80.86078 22709 ft 218 kts 220°
2026-04-20 18:02 31.91983 -80.86753 23046 ft 219 kts 220°
2026-04-20 18:03 31.90579 -80.87535 23570 ft 215 kts 221°
2026-04-20 18:03 31.89205 -80.88307 23803 ft 223 kts 221°
2026-04-20 18:03 31.87801 -80.89086 24308 ft 220 kts 221°
2026-04-20 18:03 31.86398 -80.89867 24633 ft 223 kts 222°
2026-04-20 18:04 31.84963 -80.90666 24989 ft 225 kts 221°
2026-04-20 18:04 31.83544 -80.91451 25336 ft 226 kts 222°
2026-04-20 18:04 31.82105 -80.92255 25607 ft 231 kts 222°
2026-04-20 18:04 31.80658 -80.93054 26036 ft 228 kts 222°
2026-04-20 18:05 31.77750 -80.94665 26728 ft 229 kts 223°
2026-04-20 18:05 31.76301 -80.95470 26909 ft 236 kts 223°
2026-04-20 18:05 31.74832 -80.96291 27242 ft 236 kts 224°
2026-04-20 18:06 31.73337 -80.97131 27551 ft 237 kts 223°
2026-04-20 18:06 31.71838 -80.97959 27850 ft 239 kts 224°
2026-04-20 18:06 31.70328 -80.98792 28226 ft 237 kts 224°
2026-04-20 18:06 31.68824 -80.99626 28354 ft 244 kts 223°
2026-04-20 18:07 31.67294 -81.00471 28704 ft 243 kts 224°
2026-04-20 18:07 31.65745 -81.01331 28884 ft 248 kts 224°
2026-04-20 18:07 31.64180 -81.02194 29249 ft 245 kts 224°
2026-04-20 18:07 31.62627 -81.03047 29401 ft 250 kts 224°
2026-04-20 18:08 31.61050 -81.03919 29680 ft 250 kts 224°
2026-04-20 18:08 31.59492 -81.04775 30041 ft 247 kts 224°
2026-04-20 18:08 31.57922 -81.05638 30213 ft 251 kts 225°
2026-04-20 18:08 31.56324 -81.06524 30442 ft 253 kts 224°
2026-04-20 18:09 31.54739 -81.07394 30743 ft 252 kts 225°
2026-04-20 18:09 31.53142 -81.08281 30861 ft 257 kts 225°
2026-04-20 18:09 31.51527 -81.09177 31096 ft 258 kts 225°
2026-04-20 18:09 31.49902 -81.10066 31451 ft 255 kts 226°
2026-04-20 18:10 31.48270 -81.10963 31517 ft 261 kts 225°
2026-04-20 18:10 31.46624 -81.11874 31771 ft 261 kts 225°
2026-04-20 18:10 31.45011 -81.12744 32240 ft 253 kts 225°
2026-04-20 18:10 31.43372 -81.13639 32328 ft 258 kts 225°
2026-04-20 18:11 31.41757 -81.14531 32542 ft 258 kts 226°
2026-04-20 18:11 31.40120 -81.15440 32662 ft 262 kts 226°
2026-04-20 18:11 31.38474 -81.16325 33059 ft 259 kts 224°
2026-04-20 18:11 31.36667 -81.16998 33104 ft 287 kts 211°
2026-04-20 18:12 31.34563 -81.17094 33380 ft 313 kts 197°
2026-04-20 18:12 31.32359 -81.16719 33522 ft 331 kts 188°
2026-04-20 18:12 31.30090 -81.16120 33704 ft 336 kts 186°
2026-04-20 18:12 31.27807 -81.15514 33871 ft 334 kts 187°
2026-04-20 18:13 31.23266 -81.14597 34179 ft 326 kts 192°
2026-04-20 18:13 31.18724 -81.14055 34309 ft 329 kts 195°
2026-04-20 18:14 31.16450 -81.13825 34575 ft 325 kts 195°
2026-04-20 18:14 31.14182 -81.13585 34665 ft 328 kts 195°
2026-04-20 18:14 31.11925 -81.13330 34865 ft 326 kts 194°
2026-04-20 18:14 31.09662 -81.13071 34990 ft 327 kts 194°
2026-04-20 18:15 31.07390 -81.12803 35104 ft 329 kts 194°
2026-04-20 18:15 31.05088 -81.12525 35293 ft 327 kts 193°
2026-04-20 18:15 31.00528 -81.11967 35482 ft 332 kts 193°
2026-04-20 18:16 30.95911 -81.11407 35693 ft 335 kts 193°
2026-04-20 18:16 30.93609 -81.11119 36001 ft 330 kts 193°
2026-04-20 18:16 30.91323 -81.10844 36107 ft 331 kts 193°
2026-04-20 18:17 30.86656 -81.10302 36213 ft 338 kts 193°
2026-04-20 18:17 30.84306 -81.10017 36399 ft 337 kts 193°
2026-04-20 18:17 30.82004 -81.09732 36632 ft 335 kts 194°
2026-04-20 18:18 30.79693 -81.09449 36830 ft 332 kts 193°
2026-04-20 18:18 30.77362 -81.09168 36970 ft 332 kts 194°
2026-04-20 18:18 30.72714 -81.08624 37041 ft 338 kts 193°
2026-04-20 18:19 30.67983 -81.08068 37210 ft 343 kts 193°
2026-04-20 18:19 30.63228 -81.07506 37401 ft 342 kts 193°
2026-04-20 18:20 30.58521 -81.07348 37593 ft 330 kts 201°
2026-04-20 18:20 30.56239 -81.07513 37739 ft 325 kts 204°
2026-04-20 18:20 30.54001 -81.07744 37917 ft 321 kts 205°
2026-04-20 18:21 30.49520 -81.08196 38079 ft 325 kts 204°
2026-04-20 18:21 30.44932 -81.08534 38192 ft 331 kts 202°
2026-04-20 18:22 30.42676 -81.08659 38350 ft 329 kts 202°
2026-04-20 18:22 30.40381 -81.08780 38474 ft 328 kts 202°
2026-04-20 18:22 30.35792 -81.09039 38612 ft 330 kts 202°
2026-04-20 18:23 30.31193 -81.09310 38834 ft 330 kts 202°
2026-04-20 18:23 30.26568 -81.09588 38940 ft 332 kts 202°
2026-04-20 18:24 30.21956 -81.09869 39118 ft 333 kts 202°
2026-04-20 18:24 30.17290 -81.10149 39242 ft 335 kts 201°
2026-04-20 18:25 30.12622 -81.10429 39359 ft 337 kts 201°
2026-04-20 18:25 30.07936 -81.10709 39499 ft 338 kts 201°
2026-04-20 18:26 30.05580 -81.10847 39644 ft 336 kts 201°
2026-04-20 18:26 30.03227 -81.10983 39761 ft 335 kts 201°
2026-04-20 18:26 30.00885 -81.11118 39908 ft 333 kts 200°
2026-04-20 18:26 29.98553 -81.11255 39916 ft 336 kts 200°
2026-04-20 18:27 29.93864 -81.11543 40031 ft 338 kts 200°
2026-04-20 18:27 29.89126 -81.11832 40133 ft 340 kts 200°
2026-04-20 18:28 29.84444 -81.12109 40246 ft 342 kts 200°
2026-04-20 18:28 29.79528 -81.11938 40261 ft 369 kts 185°
2026-04-20 18:29 29.76999 -81.11073 40229 ft 391 kts 171°
2026-04-20 18:29 29.74507 -81.09734 40228 ft 401 kts 165°
2026-04-20 18:29 29.69552 -81.06686 40233 ft 404 kts 165°
2026-04-20 18:30 29.64452 -81.03920 40235 ft 401 kts 169°
2026-04-20 18:30 29.59311 -81.01505 40228 ft 401 kts 171°
2026-04-20 18:31 29.54094 -80.99135 40244 ft 404 kts 171°
2026-04-20 18:31 29.48833 -80.96694 40229 ft 406 kts 169°
2026-04-20 18:32 29.43584 -80.94217 40225 ft 409 kts 169°
2026-04-20 18:32 29.38310 -80.91725 40207 ft 410 kts 169°
2026-04-20 18:33 29.33023 -80.89239 40224 ft 412 kts 169°
2026-04-20 18:33 29.27702 -80.86745 40226 ft 413 kts 169°
2026-04-20 18:34 29.22349 -80.84240 40214 ft 415 kts 169°
2026-04-20 18:34 29.16993 -80.81735 40207 ft 418 kts 168°
2026-04-20 18:35 29.11590 -80.79208 40211 ft 419 kts 169°
2026-04-20 18:35 29.06163 -80.76674 40216 ft 421 kts 169°
2026-04-20 18:36 29.00744 -80.74147 40181 ft 423 kts 169°
2026-04-20 18:36 28.95246 -80.71586 40199 ft 424 kts 168°
2026-04-20 18:37 28.89771 -80.69038 40189 ft 426 kts 168°
2026-04-20 18:37 28.84526 -80.65797 40173 ft 447 kts 149°
2026-04-20 18:38 28.82355 -80.63248 40178 ft 458 kts 131°
2026-04-20 18:38 28.80653 -80.60122 40189 ft 463 kts 121°
2026-04-20 18:38 28.77825 -80.53566 40185 ft 464 kts 119°
2026-04-20 18:39 28.74649 -80.47142 40176 ft 463 kts 126°
2026-04-20 18:39 28.71100 -80.41045 40176 ft 462 kts 129°
2026-04-20 18:40 28.67420 -80.35012 40182 ft 463 kts 129°
2026-04-20 18:40 28.63792 -80.29007 40172 ft 463 kts 128°
2026-04-20 18:41 28.60176 -80.22924 40164 ft 463 kts 128°
2026-04-20 18:41 28.56586 -80.16863 40165 ft 463 kts 128°
2026-04-20 18:42 28.52991 -80.10816 40159 ft 462 kts 128°
2026-04-20 18:42 28.49403 -80.04799 40161 ft 462 kts 128°
2026-04-20 18:43 28.45800 -79.98769 40163 ft 462 kts 128°
2026-04-20 18:43 28.42178 -79.92715 40162 ft 462 kts 128°
2026-04-20 18:44 28.38570 -79.86692 40162 ft 463 kts 128°
2026-04-20 18:44 28.34950 -79.80656 40154 ft 463 kts 128°
2026-04-20 18:45 28.31328 -79.74625 40159 ft 463 kts 128°
2026-04-20 18:45 28.27686 -79.68570 40152 ft 464 kts 128°
2026-04-20 18:46 28.24020 -79.62484 40158 ft 464 kts 128°
2026-04-20 18:46 28.20374 -79.56440 40153 ft 465 kts 128°
2026-04-20 18:47 28.16706 -79.50368 40154 ft 466 kts 128°
2026-04-20 18:47 28.13039 -79.44305 40156 ft 467 kts 128°
2026-04-20 18:48 28.09350 -79.38216 40148 ft 468 kts 128°
2026-04-20 18:48 28.05665 -79.32141 40143 ft 468 kts 129°
2026-04-20 18:49 28.01985 -79.26082 40148 ft 467 kts 129°
2026-04-20 18:49 27.98303 -79.20030 40142 ft 467 kts 128°
2026-04-20 18:50 27.94612 -79.13972 40131 ft 467 kts 128°
2026-04-20 18:50 27.90911 -79.07906 40145 ft 467 kts 129°
2026-04-20 18:51 27.87187 -79.01809 40137 ft 466 kts 128°
2026-04-20 18:51 27.83515 -78.95806 40124 ft 466 kts 128°
2026-04-20 18:52 27.79810 -78.89758 40131 ft 466 kts 129°
2026-04-20 18:52 27.76108 -78.83724 40128 ft 466 kts 129°
2026-04-20 18:53 27.72422 -78.77724 40131 ft 466 kts 129°
2026-04-20 18:53 27.68728 -78.71720 40130 ft 466 kts 129°
2026-04-20 18:54 27.65048 -78.65747 40123 ft 466 kts 129°
2026-04-20 18:54 27.61382 -78.59676 40120 ft 467 kts 127°
2026-04-20 18:55 27.57828 -78.53525 40115 ft 469 kts 126°
2026-04-20 18:55 27.54270 -78.47354 40114 ft 469 kts 126°
2026-04-20 18:56 27.50690 -78.41216 40119 ft 469 kts 126°
2026-04-20 18:56 27.47077 -78.35061 40112 ft 470 kts 126°
2026-04-20 18:57 27.43493 -78.28964 40114 ft 469 kts 127°
2026-04-20 18:57 27.39873 -78.22803 40114 ft 469 kts 127°
2026-04-20 18:58 27.36293 -78.16722 40112 ft 468 kts 127°
2026-04-20 18:58 27.32309 -78.11002 40103 ft 461 kts 139°
2026-04-20 18:59 27.27415 -78.06477 40102 ft 449 kts 154°
2026-04-20 18:59 27.22004 -78.03197 40098 ft 441 kts 162°
2026-04-20 19:00 27.16546 -77.99929 40100 ft 446 kts 158°
2026-04-20 19:00 27.11265 -77.96189 40099 ft 450 kts 154°
2026-04-20 19:01 27.06084 -77.92250 40087 ft 449 kts 153°
2026-04-20 19:01 27.00912 -77.88343 40094 ft 446 kts 154°
2026-04-20 19:02 26.95741 -77.84517 40092 ft 444 kts 154°
2026-04-20 19:02 26.90565 -77.80721 40092 ft 442 kts 154°
2026-04-20 19:03 26.85428 -77.76953 40084 ft 440 kts 154°
2026-04-20 19:03 26.80308 -77.73193 40094 ft 439 kts 154°
2026-04-20 19:04 26.75192 -77.69437 40092 ft 437 kts 154°
2026-04-20 19:04 26.70104 -77.65706 40088 ft 436 kts 154°
2026-04-20 19:05 26.65039 -77.61998 40080 ft 435 kts 154°
2026-04-20 19:05 26.59983 -77.58300 40089 ft 435 kts 154°
2026-04-20 19:06 26.54901 -77.54587 40081 ft 434 kts 154°
2026-04-20 19:06 26.49869 -77.50914 40091 ft 434 kts 154°
2026-04-20 19:07 26.44815 -77.47229 40088 ft 434 kts 154°
2026-04-20 19:07 26.39734 -77.43529 40080 ft 434 kts 154°
2026-04-20 19:08 26.32182 -77.38036 40086 ft 434 kts 154°
2026-04-20 19:09 26.27111 -77.34352 40083 ft 434 kts 154°
2026-04-20 19:09 26.22053 -77.30680 40086 ft 432 kts 154°
2026-04-20 19:10 26.17008 -77.27023 40081 ft 431 kts 154°
2026-04-20 19:10 26.12010 -77.23403 40082 ft 430 kts 154°
2026-04-20 19:11 26.06989 -77.19772 40083 ft 430 kts 154°
2026-04-20 19:11 26.01951 -77.16132 40074 ft 430 kts 154°
2026-04-20 19:12 25.96951 -77.12522 40081 ft 429 kts 154°
2026-04-20 19:12 25.91922 -77.08896 40079 ft 429 kts 154°
2026-04-20 19:13 25.86904 -77.05281 40070 ft 429 kts 154°
2026-04-20 19:13 25.81891 -77.01673 40080 ft 428 kts 154°
2026-04-20 19:14 25.76895 -76.98081 40070 ft 428 kts 154°
2026-04-20 19:14 25.71878 -76.94479 40079 ft 427 kts 154°
2026-04-20 19:15 25.66905 -76.90910 40065 ft 427 kts 154°
2026-04-20 19:15 25.61907 -76.87329 40073 ft 427 kts 154°
2026-04-20 19:16 25.56912 -76.83752 40077 ft 427 kts 154°
2026-04-20 19:16 25.51890 -76.80160 40073 ft 427 kts 154°
2026-04-20 19:17 25.46906 -76.76599 40074 ft 427 kts 154°
2026-04-20 19:17 25.41910 -76.73033 40068 ft 427 kts 154°
2026-04-20 19:18 25.36908 -76.69466 40066 ft 427 kts 154°
2026-04-20 19:18 25.31910 -76.65906 40070 ft 427 kts 154°
2026-04-20 19:19 25.26917 -76.62353 40074 ft 427 kts 154°
2026-04-20 19:19 25.21899 -76.58785 40073 ft 428 kts 154°
2026-04-20 19:20 25.16885 -76.55225 40064 ft 428 kts 154°
2026-04-20 19:20 25.11865 -76.51662 40067 ft 429 kts 154°
2026-04-20 19:21 25.06859 -76.48114 40063 ft 429 kts 154°
2026-04-20 19:21 25.01837 -76.44557 40062 ft 430 kts 153°
2026-04-20 19:22 24.96796 -76.40991 40056 ft 430 kts 153°
2026-04-20 19:22 24.91739 -76.37418 40056 ft 431 kts 153°
2026-04-20 19:23 24.86669 -76.33837 40051 ft 430 kts 154°
2026-04-20 19:23 24.81649 -76.30294 40053 ft 429 kts 154°
2026-04-20 19:24 24.76611 -76.26744 40057 ft 427 kts 154°
2026-04-20 19:24 24.71581 -76.23203 40049 ft 426 kts 154°
2026-04-20 19:25 24.66585 -76.19690 40055 ft 425 kts 154°
2026-04-20 19:25 24.61599 -76.16187 40052 ft 425 kts 154°
2026-04-20 19:26 24.56624 -76.12695 40052 ft 424 kts 154°
2026-04-20 19:26 24.51668 -76.09191 40055 ft 424 kts 154°
2026-04-20 19:27 24.46701 -76.05664 40052 ft 424 kts 153°
2026-04-20 19:27 24.41738 -76.02147 40045 ft 424 kts 153°
2026-04-20 19:28 24.36782 -75.98644 40053 ft 424 kts 153°
2026-04-20 19:28 24.31820 -75.95141 40048 ft 424 kts 153°
2026-04-20 19:29 24.26878 -75.91655 40050 ft 424 kts 153°
2026-04-20 19:29 24.21913 -75.88156 40052 ft 424 kts 153°
2026-04-20 19:30 24.16956 -75.84666 40052 ft 424 kts 153°
2026-04-20 19:30 24.11980 -75.81165 40052 ft 425 kts 154°
2026-04-20 19:31 24.06995 -75.77662 40049 ft 425 kts 153°
2026-04-20 19:31 24.02009 -75.74161 40048 ft 425 kts 153°
2026-04-20 19:32 23.97035 -75.70672 40051 ft 426 kts 153°
2026-04-20 19:32 23.92034 -75.67167 40050 ft 426 kts 153°
2026-04-20 19:33 23.87011 -75.63650 40049 ft 427 kts 153°
2026-04-20 19:33 23.82007 -75.60149 40042 ft 427 kts 153°
2026-04-20 19:34 23.77020 -75.56664 40042 ft 427 kts 153°
2026-04-20 19:34 23.72025 -75.53176 40047 ft 427 kts 153°
2026-04-20 19:35 23.67012 -75.49680 40048 ft 427 kts 153°
2026-04-20 19:35 23.61994 -75.46183 40041 ft 427 kts 153°
2026-04-20 19:36 23.57004 -75.42709 40046 ft 427 kts 152°
2026-04-20 19:36 23.51972 -75.39208 40041 ft 428 kts 153°
2026-04-20 19:37 23.46956 -75.35722 40045 ft 428 kts 152°
2026-04-20 19:37 23.41903 -75.32212 40043 ft 427 kts 153°
2026-04-20 19:38 23.36911 -75.28748 40043 ft 426 kts 153°
2026-04-20 19:38 23.31893 -75.25271 40037 ft 426 kts 153°
2026-04-20 19:39 23.26918 -75.21826 40032 ft 426 kts 152°
2026-04-20 19:39 23.21912 -75.18363 40036 ft 425 kts 153°
2026-04-20 19:40 23.16919 -75.14912 40030 ft 425 kts 152°
2026-04-20 19:40 23.11931 -75.11467 40033 ft 425 kts 152°
2026-04-20 19:41 23.07176 -75.07606 40027 ft 431 kts 140°
2026-04-20 19:41 23.03400 -75.02486 40029 ft 435 kts 123°
2026-04-20 19:42 23.00379 -74.96809 40031 ft 435 kts 120°
2026-04-20 19:42 22.97207 -74.91231 40023 ft 435 kts 124°
2026-04-20 19:43 22.93750 -74.85848 40029 ft 435 kts 127°
2026-04-20 19:43 22.90189 -74.80510 40026 ft 435 kts 127°
2026-04-20 19:44 22.86654 -74.75155 40025 ft 435 kts 127°
2026-04-20 19:44 22.83162 -74.69797 40029 ft 435 kts 126°
2026-04-20 19:45 22.79687 -74.64456 40023 ft 435 kts 126°
2026-04-20 19:45 22.76185 -74.59088 40024 ft 434 kts 127°
2026-04-20 19:46 22.72707 -74.53770 40024 ft 434 kts 127°
2026-04-20 19:46 22.69212 -74.48434 40018 ft 434 kts 126°
2026-04-20 19:47 22.65703 -74.43079 40019 ft 435 kts 126°
2026-04-20 19:47 22.62219 -74.37769 40021 ft 435 kts 127°
2026-04-20 19:48 22.58694 -74.32399 40021 ft 434 kts 127°
2026-04-20 19:48 22.55196 -74.27078 40020 ft 434 kts 127°
2026-04-20 19:49 22.51699 -74.21762 40020 ft 433 kts 127°
2026-04-20 19:49 22.48219 -74.16479 40018 ft 433 kts 127°
2026-04-20 19:50 22.44730 -74.11186 40018 ft 433 kts 127°
2026-04-20 19:50 22.41246 -74.05908 40018 ft 433 kts 127°
2026-04-20 19:51 22.37729 -74.00583 40017 ft 433 kts 127°
2026-04-20 19:51 22.34238 -73.95305 40015 ft 433 kts 127°
2026-04-20 19:52 22.30749 -73.90034 40007 ft 433 kts 127°
2026-04-20 19:52 22.27254 -73.84759 40006 ft 433 kts 127°
2026-04-20 19:53 22.23738 -73.79457 39999 ft 433 kts 127°
2026-04-20 19:53 22.20222 -73.74161 39997 ft 433 kts 127°
2026-04-20 19:54 22.16721 -73.68893 39997 ft 434 kts 127°
2026-04-20 19:54 22.13199 -73.63599 39995 ft 434 kts 127°
2026-04-20 19:55 22.09685 -73.58321 39994 ft 434 kts 127°
2026-04-20 19:55 22.06164 -73.53039 39997 ft 435 kts 127°
2026-04-20 19:56 22.02642 -73.47759 40003 ft 435 kts 127°
2026-04-20 19:56 21.99103 -73.42461 40004 ft 435 kts 127°
2026-04-20 19:57 21.95553 -73.37151 40006 ft 436 kts 127°
2026-04-20 19:57 21.92026 -73.31880 40007 ft 436 kts 128°
2026-04-20 19:58 21.88483 -73.26590 40002 ft 435 kts 128°
2026-04-20 19:58 21.84932 -73.21293 40002 ft 434 kts 128°
2026-04-20 19:59 21.81431 -73.16075 40002 ft 433 kts 127°
2026-04-20 19:59 21.77887 -73.10800 40000 ft 432 kts 127°
2026-04-20 20:00 21.74391 -73.05601 40003 ft 431 kts 127°
2026-04-20 20:00 21.70855 -73.00348 40003 ft 431 kts 128°
2026-04-20 20:01 21.67349 -72.95143 40002 ft 431 kts 128°
2026-04-20 20:01 21.63843 -72.89945 40001 ft 430 kts 128°
2026-04-20 20:02 21.60325 -72.84733 39999 ft 430 kts 128°
2026-04-20 20:02 21.56803 -72.79520 40001 ft 430 kts 127°
2026-04-20 20:03 21.53301 -72.74341 39998 ft 430 kts 127°
2026-04-20 20:03 21.49781 -72.69141 39988 ft 430 kts 127°
2026-04-20 20:04 21.46251 -72.63931 39992 ft 430 kts 127°
2026-04-20 20:04 21.42744 -72.58760 39989 ft 431 kts 127°
2026-04-20 20:05 21.39217 -72.53565 39982 ft 431 kts 127°
2026-04-20 20:05 21.35672 -72.48347 39987 ft 431 kts 127°
2026-04-20 20:06 21.32144 -72.43160 39987 ft 431 kts 127°
2026-04-20 20:06 21.28617 -72.37979 39988 ft 431 kts 127°
2026-04-20 20:07 21.25074 -72.32779 39983 ft 431 kts 127°
2026-04-20 20:07 21.21547 -72.27607 39981 ft 430 kts 127°
2026-04-20 20:08 21.18010 -72.22427 39974 ft 430 kts 127°
2026-04-20 20:08 21.14487 -72.17270 39976 ft 430 kts 127°
2026-04-20 20:09 21.10950 -72.12099 39975 ft 429 kts 127°
2026-04-20 20:09 21.07443 -72.06976 39983 ft 429 kts 127°
2026-04-20 20:10 21.03916 -72.01829 39988 ft 429 kts 127°
2026-04-20 20:10 21.00388 -71.96683 39981 ft 429 kts 127°
2026-04-20 20:11 20.96852 -71.91531 39986 ft 429 kts 127°
2026-04-20 20:11 20.93308 -71.86374 39985 ft 429 kts 127°
2026-04-20 20:12 20.89830 -71.81314 39964 ft 408 kts 127°
2026-04-20 20:12 20.88179 -71.78909 39964 ft 387 kts 127°
2026-04-20 20:12 20.86602 -71.76615 39961 ft 368 kts 127°
2026-04-20 20:13 20.83552 -71.72191 38351 ft 376 kts 127°
2026-04-20 20:13 20.81986 -71.69925 37493 ft 381 kts 127°
2026-04-20 20:13 20.80406 -71.67636 36634 ft 385 kts 127°
2026-04-20 20:13 20.78814 -71.65331 35780 ft 388 kts 127°
2026-04-20 20:14 20.77218 -71.63017 34932 ft 389 kts 127°
2026-04-20 20:14 20.75613 -71.60690 34084 ft 390 kts 127°
2026-04-20 20:14 20.74011 -71.58369 33243 ft 390 kts 126°
2026-04-20 20:14 20.72400 -71.56037 32449 ft 390 kts 127°
2026-04-20 20:15 20.70787 -71.53702 31659 ft 390 kts 127°
2026-04-20 20:15 20.69194 -71.51399 30882 ft 389 kts 127°
2026-04-20 20:15 20.67587 -71.49075 30099 ft 388 kts 127°
2026-04-20 20:15 20.66001 -71.46782 29325 ft 387 kts 127°
2026-04-20 20:16 20.64398 -71.44467 28555 ft 385 kts 127°
2026-04-20 20:16 20.62804 -71.42165 27795 ft 383 kts 127°
2026-04-20 20:16 20.61226 -71.39888 27037 ft 380 kts 127°
2026-04-20 20:16 20.59669 -71.37642 26282 ft 377 kts 127°
2026-04-20 20:17 20.58105 -71.35387 25520 ft 373 kts 127°
2026-04-20 20:17 20.56570 -71.33173 24765 ft 370 kts 127°
2026-04-20 20:17 20.55042 -71.30971 24008 ft 365 kts 127°
2026-04-20 20:17 20.53546 -71.28816 23261 ft 361 kts 127°
2026-04-20 20:18 20.52077 -71.26701 22530 ft 357 kts 127°
2026-04-20 20:18 20.50603 -71.24580 21806 ft 353 kts 126°
2026-04-20 20:18 20.49150 -71.22489 21084 ft 348 kts 126°
2026-04-20 20:18 20.47732 -71.20450 20373 ft 344 kts 126°
2026-04-20 20:19 20.46316 -71.18415 19654 ft 340 kts 126°
2026-04-20 20:19 20.44911 -71.16396 18936 ft 335 kts 126°
2026-04-20 20:19 20.43507 -71.14378 18206 ft 331 kts 126°
2026-04-20 20:19 20.42105 -71.12413 17479 ft 327 kts 128°
2026-04-20 20:20 20.40619 -71.10593 16772 ft 323 kts 133°
2026-04-20 20:20 20.38976 -71.08961 16061 ft 319 kts 140°
2026-04-20 20:20 20.37199 -71.07528 15512 ft 309 kts 144°
2026-04-20 20:20 20.35457 -71.06253 15095 ft 297 kts 145°
2026-04-20 20:21 20.33781 -71.05038 14687 ft 288 kts 145°
2026-04-20 20:21 20.32158 -71.03818 14274 ft 280 kts 143°
2026-04-20 20:21 20.30595 -71.02586 13870 ft 287 kts 142°
2026-04-20 20:21 20.28954 -71.01238 13485 ft 302 kts 141°
2026-04-20 20:22 20.27282 -70.99834 13102 ft 314 kts 141°
2026-04-20 20:22 20.25538 -70.98357 12706 ft 321 kts 141°
2026-04-20 20:22 20.23766 -70.96859 12307 ft 324 kts 141°
2026-04-20 20:22 20.22008 -70.95380 11901 ft 318 kts 141°
2026-04-20 20:23 20.20306 -70.93957 11491 ft 305 kts 141°
2026-04-20 20:23 20.18660 -70.92585 11083 ft 298 kts 141°
2026-04-20 20:23 20.17047 -70.91248 10673 ft 291 kts 142°
2026-04-20 20:23 20.15415 -70.90004 10262 ft 286 kts 147°
2026-04-20 20:24 20.13659 -70.89005 9851 ft 282 kts 153°
2026-04-20 20:24 20.11896 -70.88090 9440 ft 278 kts 154°
2026-04-20 20:24 20.10195 -70.87186 9036 ft 275 kts 153°
2026-04-20 20:24 20.08482 -70.86238 8624 ft 273 kts 152°
2026-04-20 20:25 20.06811 -70.85287 8214 ft 270 kts 151°
2026-04-20 20:25 20.05142 -70.84325 7801 ft 268 kts 151°
2026-04-20 20:25 20.03492 -70.83375 7387 ft 265 kts 151°
2026-04-20 20:25 20.01856 -70.82433 6974 ft 263 kts 151°
2026-04-20 20:26 20.00236 -70.81501 6561 ft 261 kts 151°
2026-04-20 20:26 19.98684 -70.80505 6150 ft 259 kts 146°
2026-04-20 20:26 19.97182 -70.79427 5728 ft 257 kts 145°
2026-04-20 20:26 19.95691 -70.78345 5299 ft 256 kts 145°
2026-04-20 20:27 19.94223 -70.77294 4883 ft 255 kts 145°
2026-04-20 20:27 19.92732 -70.76244 4478 ft 254 kts 145°
2026-04-20 20:27 19.91259 -70.75215 4075 ft 253 kts 145°
2026-04-20 20:27 19.89788 -70.74191 3662 ft 252 kts 145°
2026-04-20 20:28 19.88319 -70.73169 3264 ft 249 kts 145°
2026-04-20 20:28 19.86864 -70.72156 3039 ft 239 kts 145°
2026-04-20 20:28 19.85516 -70.71217 3004 ft 227 kts 144°
2026-04-20 20:28 19.84217 -70.70312 3004 ft 215 kts 144°
2026-04-20 20:29 19.82978 -70.69451 3004 ft 206 kts 144°
2026-04-20 20:29 19.81790 -70.68623 2886 ft 204 kts 144°
2026-04-20 20:29 19.80571 -70.67772 2572 ft 210 kts 144°
2026-04-20 20:29 19.79316 -70.66979 2299 ft 207 kts 150°
2026-04-20 20:30 19.77960 -70.66433 2034 ft 203 kts 160°
2026-04-20 20:30 19.76626 -70.66080 1903 ft 181 kts 163°
2026-04-20 20:30 19.75439 -70.65794 1488 ft 162 kts 162°
2026-04-20 20:30 19.74484 -70.65440 1418 ft 123 kts 145°
2026-04-20 20:31 19.73968 -70.64805 1194 ft 107 kts 112°
2026-04-20 20:31 19.73810 -70.64087 1080 ft 91 kts 90°
2026-04-20 20:31 19.73879 -70.63425 995 ft 101 kts 77°
2026-04-20 20:31 19.74107 -70.62724 1075 ft 101 kts 75°
2026-04-20 20:32 19.74352 -70.61931 724 ft 119 kts 74°
2026-04-20 20:32 19.74593 -70.61123 569 ft 108 kts 74°
2026-04-20 20:32 19.74808 -70.60384 433 ft 100 kts 76°
2026-04-20 20:32 19.74985 -70.59677 299 ft 94 kts 72°
2026-04-20 20:33 19.75185 -70.59018 186 ft 92 kts 74°
2026-04-20 20:33 19.75386 -70.58363 68 ft 92 kts 74°
2026-04-20 20:33 19.75555 -70.57778 38 ft 71 kts 71°
2026-04-20 20:33 19.75680 -70.57372 37 ft 38 kts 72°
2026-04-20 20:34 19.75673 -70.57206 37 ft 17 kts 134°
2026-04-20 20:34 19.75597 -70.57120 37 ft 15 kts 133°
2026-04-20 20:34 19.75532 -70.57039 37 ft 13 kts 106°
2026-04-20 20:34 19.75550 -70.56948 37 ft 11 kts 71°
2026-04-20 20:35 19.75574 -70.56870 37 ft 12 kts 72°
2026-04-20 20:35 19.75606 -70.56767 37 ft 16 kts 71°
2026-04-20 20:35 19.75619 -70.56654 37 ft 14 kts 142°
2026-04-20 20:35 19.75528 -70.56622 37 ft 13 kts 162°
2026-04-20 20:36 19.75445 -70.56591 37 ft 11 kts 137°
2026-04-20 20:36 19.75441 -70.56515 37 ft 9 kts 65°
2026-04-20 20:36 19.75473 -70.56459 37 ft 6 kts 71°
2026-04-20 20:36 19.75472 -70.56440 37 ft 1 kts 95°
2026-04-20 20:37 19.75474 -70.56432 37 ft 0 kts 86°
2026-04-20 20:37 19.75473 -70.56431 37 ft 0 kts 146°
2026-04-20 20:37 19.75472 -70.56432 37 ft 0 kts 245°
2026-04-20 20:37 19.75471 -70.56435 37 ft 0 kts 252°